Regional Weather Roundup
Issued by NWS Charleston, SC

Current Version | Previous Version | Graphics & Text | Print | Product List | Glossary On
Versions: 1 2 3 4 5 6 7 8 9 10 11 12 13 14 15 16 17 18 19 20 21 22 23 24 25 26 27 28 29 30 31 32 33 34 35 36 37 38 39 40 41 42 43 44 45 46 47 48 49 50
000
ASUS42 KCHS 250327
RWRCHS

REGIONAL WEATHER ROUNDUP
NATIONAL WEATHER SERVICE CHARLESTON SC
1100 PM EDT MON APR 24 2017

NOTE: "FAIR" INDICATES FEW OR NO CLOUDS BELOW 12,000 FEET WITH NO
SIGNIFICANT WEATHER AND/OR OBSTRUCTIONS TO VISIBILITY.

NOT ALL STATIONS ARE QUALITY CONTROLLED. USE DATA WITH CAUTION...
ESPECIALLY DEWPOINT OBSERVATIONS.

SCZ027-030-031-034>040-042>050-250400-
...SOUTHEAST SOUTH CAROLINA...

CITY           SKY/WX    TMP DP  RH WIND       PRES   REMARKS
N CHARLESTON   PTCLDY    60  57  89 W6        29.64S
WATERFRONT PRK   N/A     66  61  84 W6        29.63R
JOHNS ISLAND   MOCLDY    64  61  88 W9        29.64S
PINOPOLIS        N/A     61  59  94 W10       29.55R
MONCKS CORNER  FAIR      57  55  94 CALM      29.63F
SUMMERVILLE    CLOUDY    59  55  88 CALM      29.66S
BEAUFORT MCAS  CLOUDY    64  59  83 NW13      29.67R
BEAUFORT ARPT  MOCLDY    63  57  82 W15       29.66S
HILTON HEAD IS CLEAR     63  57  82 VRB5G13   29.66F
WALTERBORO     CLOUDY    61  59  94 W6        29.66F
ALLENDALE      CLOUDY    59  59 100 N5        29.66F

...SOUTHERN MIDLANDS AND PEE DEE...

CITY           SKY/WX    TMP DP  RH WIND       PRES   REMARKS
GEORGETOWN     MOCLDY    63  63 100 CALM      29.63S
KINGSTREE      LGT RAIN  59  57  94 N5        29.63F
ORANGEBURG     LGT RAIN  61  60  97 NW7       29.66S
BARNWELL       CLOUDY    59  59 100 NW8       29.68F FOG
AIKEN          CLOUDY    54  54 100 NW8       29.73F
MANNING        TSTM      59  57  94 MISG      29.64S
COLUMBIA       CLOUDY    59  56  89 NW7       29.67F FOG
SUMTER         LGT RAIN  59  57  94 N9        29.64S
FLORENCE       CLOUDY    58  58 100 NW8       29.66R
MYRTLE BEACH   CLOUDY    64  64 100 CALM      29.63S
N MYRTLE BEACH CLOUDY    63  63 100 CALM      29.62S

$$

GAZ063-065-086>088-099>101-113>116-118-119-134>141-150-250400-
...SOUTHEAST GEORGIA...

CITY           SKY/WX    TMP DP  RH WIND       PRES   REMARKS
SAVANNAH ARPT  PTCLDY    63  56  78 NW9       29.67F
HUNTER AAF     CLEAR     61  58  92 W6        29.65F
FORT STEWART   CLEAR     62  55  78 W7        29.66F
STATESBORO     CLOUDY    60  60 100 NW10G18   29.70R
SYLVANIA       CLOUDY   N/A N/A N/A NW9       29.71R
CLAXTON        CLOUDY   N/A N/A N/A SW7       29.70R

...CSRA...CENTRAL AND FAR SOUTHEAST GEORGIA...

CITY           SKY/WX    TMP DP  RH WIND       PRES   REMARKS
THOMSON        CLOUDY    56  55  94 E9        29.78S
AUGUSTA-BUSH   CLOUDY    59  56  89 N10       29.71R
AUGUSTA-DANIEL CLOUDY    57  53  86 NW9G17    29.72S
SWAINSBORO     CLOUDY    59  59 100 NW5       29.72S
VIDALIA        CLOUDY    61  55  82 N8        29.72S
EASTMAN        FAIR      57  57 100 CALM      29.76S
HAZLEHURST     FAIR      59  58  96 CALM      29.72R
ALMA           PTCLDY    58  55  90 NW3       29.73R
WAYCROSS       CLEAR     61  59  91 W6        29.73R
JESUP          CLOUDY    63  54  72 NW7       29.71S
BAXLEY         MOCLDY    61  61 100 NW3       29.72S
BRUNSWICK      CLEAR     61  55  82 W7        29.71S
SAINT SIMONS   LGT RAIN  63  53  70 W8        29.70S

$$

SCZ027-028-034-036>038-045-046-048>050-GAZ119-141-250400-
...LAKE AND SUPPLEMENTAL COASTAL OBSERVATIONS...

STATION/POSITION TIME  TEMP    WIND        PRES    WAVE   SWELL
                       AIR SEA DIR/SP/G            HT/PER HT/PER/DIR
                 (UTC) (F)     (DEG/KT/KT) (MB)    (FT/S) (FT/S/D)
WINYAH BAY       0245   67      90/  9     1003.0S
LAKE MURRAY      0250   57     340/  2/  6 1005.4R
ACE BASIN NERRS  0245   63     240/  3     1004.0S
FORT PULASKI     0300   64 75  320/ 10/ 12 1004.8
SAPELO ISLAND    0245   64     270/ 10     1006.0R

$$

ANZ835-935-AMZ111-154-330-350-352-354-370-450-454-472-250400-
...C-MAN AND BUOY OBSERVATIONS...

STATION/POSITION TIME  TEMP    WIND        PRES    WAVE   SWELL
                       AIR SEA DIR/SP/G            HT/PER HT/PER/DIR
                 (UTC) (F)     (DEG/KT/KT) (MB)    (FT/S) (FT/S/D)
BUOY 41004       0300   72 72  240/ 14/ 17 1003.1
BUOY 41008       0250   67 71  280/ 16/ 19 1004.9R   4/ 9   3/ 90/ 9
FOLLY BEACH CMAN 0300   65     270/  6/ 10 1004.0S
CAPERS NEARSHORE 0308   71 72  290/ 14/ 19 1003.0R
FRIPP NEARSHORE  0308   66 72  310/ 16/ 19 1004.3R


STATION/POSITION TIME  TEMP    WIND        PRES    WAVE   SWELL
                       AIR SEA DIR/SP/G            HT/PER HT/PER/DIR
                 (UTC) (F)     (DEG/KT/KT) (MB)    (FT/S) (FT/S/D)
5E ST. MARYS GA  0300      72                N/A     3/ 9   2/100/11
FRYING PAN BUOY  0300   70 75  130/  6/ 10 1003.5
BUOY 41025       0250   74 78  110/ 29/ 35 1005.4F  15/ 9
CAPE LOOKOUT NC  0300   71     120/ 27/ 30 1003.7F
BUOY 41002       0250   74 75  210/ 17/ 21 1003.3R  11/10   8/130/10
BUOY 41010       0310   77 77  280/ 16/ 19 1005.5
ST AUGUSTINE FL  0300   64 74  280/  6/  8 1007.9R


$$




USA.gov is the U.S. government's official web portal to all federal, state and local government web resources and services.